This is the latest recevied weather packets stored in our database for station/object OE3CJB-13. If no packets are shown the sender has not sent any weather packets the latest 10 day(s).
| Time | Temp. | Humidity | Pressure | Rain* | Wind** | Luminosity | Snow |
|---|---|---|---|---|---|---|---|
| 1787589929 | 24.44° C | 23% | 1182.7 hPa | 0 mm | - | - | - |
| 1787589066 | 25° C | 23% | 1181.9 hPa | 0 mm | - | - | - |
| 1787588152 | 25° C | 23% | 1180.5 hPa | 0 mm | - | - | - |
| 1787587242 | 25.56° C | 22% | 1181.4 hPa | 0 mm | - | - | - |
| 1787586328 | 25.56° C | 22% | 1182.1 hPa | 0 mm | - | - | - |
| 1787585416 | 25.56° C | 22% | 1183.1 hPa | 0 mm | - | - | - |
| 1787584566 | 25.56° C | 22% | 1183.9 hPa | 0 mm | - | - | - |
| 1787583668 | 25.56° C | 21% | 1185.5 hPa | 0 mm | - | - | - |
| 1787582728 | 26.11° C | 21% | 1185.6 hPa | 0 mm | - | - | - |
| 1787581816 | 26.11° C | 20% | 1186.4 hPa | 0 mm | - | - | - |
| 1787580952 | 26.11° C | 19% | 1187.2 hPa | 0 mm | - | - | - |
| 1787580616 | 26.67° C | 19% | 1187.2 hPa | 0 mm | - | - | - |
| 1787580042 | 26.67° C | 21% | 1186.5 hPa | 0 mm | - | - | - |
| 1787579166 | 26.11° C | 21% | 1186.6 hPa | 0 mm | - | - | - |
| 1787578216 | 26.11° C | 22% | 1185.9 hPa | 0 mm | - | - | - |
| 1787577353 | 25.56° C | 23% | 1187.7 hPa | 0 mm | - | - | - |
| 1787576443 | 25.56° C | 23% | 1187.1 hPa | 0 mm | - | - | - |
| 1787575528 | 25.56° C | 23% | 1187.2 hPa | 0 mm | - | - | - |
| 1787574616 | 25.56° C | 23% | 1188.1 hPa | 0 mm | - | - | - |
| 1787573752 | 25° C | 24% | 1187.4 hPa | 0 mm | - | - | - |
| 1787572844 | 24.44° C | 26% | 1185.8 hPa | 0 mm | - | - | - |
| 1787571929 | 24.44° C | 25% | 1186 hPa | 0 mm | - | - | - |
| 1787571016 | 23.89° C | 25% | 1186.1 hPa | 0 mm | - | - | - |
| 1787570153 | 23.89° C | 27% | 1187 hPa | 0 mm | - | - | - |
| 1787569243 | 23.33° C | 30% | 1186.3 hPa | 0 mm | - | - | - |
* Rain latest hour (hover to see other rain measurements)
** Current wind speed in m/s (hover to see current wind gust speed)